Temp
23 21 19 18 20 20 21 24 24 24 24 24 25 24 23 21 22 20 19 20 20 20 19 20 19 20 20 20 19 19 19 19 19 19 19 18 18 18 18 18 18 18 18 18 18 18 18 17 18
24 22 18 19 20 21 21 24 24 24 23 24 24 23 22 19 19 19 19 20 20 21 20 20 19 19 20 20 19 20 19 19 19 19 19 19 18 18 18 18 18 18 18 18 17 18 17 17 18
23 22 21 19 20 21 22 24 23 24 25 25 23 23 22 20 19 20 20 20 20 20 20 20 20 19 20 20 19 19 19 19 19 19 19 19 18 18 18 18 18 18 18 18 18 18 17 17 17
24 21 22 22 24 25 24 24 24 24 25 24 23 21 21 20 21 21 21 21 20 20 20 20 20 20 19 19 19 19 19 19 19 19 19 19 18 18 18 18 18 18 18 18 18 17 17 17 17
23 24 22 23 24 25 25 25 25 24 24 23 23 21 20 21 21 21 21 20 20 20 20 20 20 20 20 19 19 19 19 19 19 19 19 19 19 19 19 19 19 19 18 18 18 18 18 18 18
25 24 22 23 25 26 25 26 25 24 23 22 22 21 20 21 21 21 21 20 20 21 20 20 20 20 20 20 20 19 19 20 19 19 19 19 19 19 19 19 18 18 18 18 18 17 17 17 18
24 21 23 24 25 26 25 26 25 23 23 23 23 19 19 20 21 21 20 20 20 20 20 20 20 20 20 20 20 20 20 20 19 19 19 19 18 18 18 18 19 18 18 18 18 17 17 17 17
27 21 23 24 25 26 26 26 26 25 24 23 23 19 19 20 20 20 20 20 20 20 20 20 20 20 20 20 20 20 20 19 20 19 19 19 19 18 18 18 18 18 18 18 18 18 17 17 17
27 22 23 25 25 27 26 25 25 26 24 24 23 23 23 21 21 20 20 20 20 20 20 20 20 20 20 20 20 21 20 19 19 19 19 19 19 19 19 18 18 18 18 18 18 18 18 18 18
24 22 27 26 27 26 27 26 25 24 24 22 23 23 22 22 21 21 20 20 20 21 21 20 20 20 20 20 20 20 20 20 19 19 19 19 19 19 18 18 18 18 18 18 18 18 18 18 18
24 25 26 27 28 28 27 26 26 24 23 23 23 22 22 22 21 21 21 22 22 21 21 21 20 20 20 20 20 20 20 20 20 19 19 19 19 18 18 18 18 18 18 18 18 18 18 18 18
26 27 27 28 28 28 26 27 25 26 27 28 26 24 22 22 21 21 21 21 21 21 21 21 20 20 20 20 20 20 19 20 19 19 19 19 19 18 18 18 17 18 18 18 18 18 18 17 18
26 27 28 29 28 28 28 26 26 26 27 27 25 23 23 22 22 22 22 22 21 21 21 21 20 20 20 20 19 19 19 19 19 19 18 18 18 18 18 18 18 18 18 18 18 18 18 18 17
28 28 28 30 29 29 27 27 27 25 25 25 24 24 23 23 23 22 21 22 22 21 21 20 18 18 19 18 18 19 18 18 18 19 18 18 18 18 18 18 18 18 18 18 18 18 18 17 17
28 29 27 28 29 27 28 26 25 26 24 23 23 23 24 24 23 23 23 22 22 21 20 19 17 19 19 18 17 18 17 18 19 19 18 18 18 18 18 18 18 18 17 17 17 17 17 17 17
25 24 25 28 28 28 28 25 26 24 23 22 23 23 23 24 24 23 22 22 22 21 21 20 21 21 19 19 18 18 18 18 19 18 19 19 18 18 18 18 18 17 17 17 17 17 17 17 17
21 25 26 25 27 27 27 26 26 24 23 22 22 22 23 24 24 24 23 22 22 22 21 21 21 20 19 19 18 18 18 19 19 19 19 19 19 18 18 18 18 17 17 17 17 17 17 17 17
26 25 24 25 26 27 26 27 24 23 23 22 23 23 23 24 25 24 23 23 22 22 22 22 22 20 19 19 18 17 17 18 18 18 18 19 19 18 18 18 17 17 17 17 17 17 17 17 17
25 25 24 24 27 28 26 27 25 23 23 23 23 23 24 24 24 24 23 23 23 23 22 22 21 20 19 18 17 16 16 17 17 18 18 18 18 18 18 17 17 17 17 17 17 16 16 17 17
24 25 25 25 26 28 27 27 24 22 23 24 23 23 24 24 24 24 23 23 23 23 23 21 21 20 19 18 17 16 17 18 17 17 18 18 18 18 18 17 17 16 16 16 16 16 16 16 16
26 26 27 27 25 25 25 24 24 25 25 25 24 24 24 25 25 24 24 23 23 23 23 22 20 19 20 19 19 18 18 17 18 19 18 18 18 17 17 17 16 16 16 16 16 16 16 16 16
26 26 27 27 24 24 23 23 23 23 20 22 23 24 25 25 25 25 25 24 24 23 22 21 20 19 19 19 19 18 18 18 18 18 18 17 17 17 17 16 17 17 17 16 16 16 16 15 16
26 26 25 25 22 23 23 21 22 21 23 22 21 23 25 26 26 26 25 24 23 22 21 20 20 20 19 19 19 18 18 18 18 17 17 17 17 17 17 17 17 17 16 16 16 16 16 16 15
24 24 20 17 18 21 21 21 21 22 22 21 22 23 25 26 25 25 24 23 22 22 20 20 20 20 19 19 19 19 18 18 18 17 17 17 17 17 17 16 16 16 16 16 16 16 16 16 16
23 20 19 22 19 21 20 21 21 21 21 21 22 24 24 24 25 25 25 23 23 22 21 20 20 20 19 19 19 19 19 18 17 17 17 17 17 17 17 16 16 16 16 16 16 16 16 16 15
24 22 19 23 20 21 20 23 23 22 22 22 24 24 23 24 24 24 24 23 22 21 21 20 20 19 19 19 19 19 19 18 17 17 17 17 17 16 16 15 16 16 16 16 16 16 16 16 15
23 23 21 16 16 20 19 21 22 22 21 20 21 23 24 24 24 24 24 23 21 21 21 20 20 19 19 19 20 19 19 18 16 16 17 16 17 16 16 15 16 16 16 16 16 16 16 16 16
25 21 22 17 22 23 20 21 20 23 22 19 19 20 21 22 23 23 23 22 21 20 20 20 19 19 19 18 18 18 18 17 17 16 16 16 16 16 15 15 16 16 15 16 16 16 16 15 15
23 21 17 16 17 19 20 20 18 20 20 19 18 20 20 20 21 22 23 21 21 20 20 19 18 18 18 18 18 17 17 17 16 16 16 16 16 15 15 16 16 16 16 16 16 16 16 16 15
24 22 19 19 21 15 17 20 21 19 18 18 19 20 20 20 21 21 22 21 20 20 20 18 18 17 16 16 17 17 17 17 17 16 16 15 16 15 15 15 15 15 16 15 16 16 15 15 15
Height
1504 1505 1507 1509 1517 1517 1526 1517 1507 1507 1506 1506 1508 1508 1510 1513 1515 1528 1521 1526 1530 1533 1536 1539 1542 1544 1545 1547 1549 1551 1552 1554 1555 1556 1558 1560 1562 1563 1564 1565 1566 1567 1568 1568 1570 1570 1570 1570 1570
1503 1504 1509 1510 1523 1536 1531 1512 1512 1508 1508 1508 1509 1511 1513 1516 1516 1517 1522 1526 1531 1535 1537 1539 1543 1545 1547 1549 1551 1552 1553 1555 1557 1558 1558 1560 1562 1563 1565 1566 1567 1569 1569 1571 1568 1571 1571 1572 1572
1505 1508 1510 1513 1526 1535 1528 1511 1511 1509 1509 1510 1512 1513 1516 1519 1519 1521 1524 1528 1532 1535 1538 1541 1544 1547 1548 1550 1552 1553 1555 1557 1559 1560 1561 1562 1563 1565 1566 1567 1568 1569 1570 1570 1571 1571 1573 1572 1574
1504 1509 1511 1517 1521 1514 1514 1511 1511 1512 1512 1512 1514 1517 1520 1522 1522 1525 1527 1530 1534 1537 1540 1543 1546 1548 1549 1551 1553 1555 1556 1558 1559 1561 1562 1563 1565 1566 1567 1568 1568 1569 1570 1571 1571 1572 1571 1572 1574
1506 1507 1516 1520 1522 1514 1510 1511 1513 1513 1513 1515 1516 1521 1523 1525 1526 1527 1529 1532 1535 1538 1541 1544 1546 1548 1550 1552 1554 1556 1557 1558 1560 1562 1563 1564 1565 1567 1567 1568 1569 1569 1570 1572 1573 1573 1573 1574 1575
1506 1505 1524 1531 1521 1513 1513 1514 1515 1515 1516 1517 1519 1522 1525 1526 1528 1528 1531 1534 1537 1539 1542 1544 1547 1549 1551 1553 1555 1557 1558 1559 1560 1561 1563 1564 1566 1567 1568 1568 1569 1570 1571 1571 1572 1573 1574 1575 1576
1504 1509 1524 1522 1520 1516 1515 1516 1517 1515 1517 1519 1518 1524 1526 1527 1529 1530 1533 1536 1539 1542 1543 1545 1547 1550 1552 1554 1556 1557 1558 1559 1561 1562 1564 1565 1567 1568 1568 1569 1570 1570 1571 1571 1572 1573 1574 1575 1576
1500 1508 1522 1520 1521 1518 1511 1515 1515 1516 1518 1520 1521 1523 1527 1527 1529 1532 1535 1538 1540 1543 1545 1547 1549 1550 1552 1553 1555 1558 1559 1560 1561 1563 1564 1565 1566 1567 1569 1570 1570 1571 1570 1571 1572 1572 1573 1574 1576
1502 1518 1526 1518 1518 1512 1510 1514 1518 1516 1516 1520 1521 1520 1521 1524 1529 1533 1535 1539 1541 1544 1546 1548 1549 1551 1552 1554 1555 1556 1558 1560 1562 1563 1564 1565 1566 1567 1568 1570 1571 1571 1571 1571 1571 1572 1573 1574 1575
1503 1520 1512 1506 1504 1506 1509 1511 1516 1517 1518 1520 1521 1521 1522 1525 1528 1532 1534 1537 1541 1543 1545 1548 1550 1551 1552 1554 1554 1556 1556 1559 1561 1563 1564 1565 1566 1567 1568 1569 1570 1570 1570 1570 1571 1572 1573 1574 1575
1506 1512 1506 1505 1504 1502 1506 1511 1514 1515 1520 1516 1516 1520 1522 1524 1527 1531 1535 1537 1539 1543 1545 1547 1549 1551 1553 1554 1555 1555 1556 1558 1559 1561 1563 1564 1566 1567 1568 1568 1568 1570 1570 1570 1570 1572 1573 1573 1574
1507 1502 1503 1504 1503 1505 1506 1509 1512 1513 1511 1511 1515 1518 1522 1524 1527 1530 1534 1537 1540 1542 1544 1546 1548 1550 1551 1552 1554 1555 1556 1557 1558 1559 1560 1562 1564 1566 1567 1567 1564 1568 1568 1570 1570 1570 1571 1572 1573
1504 1502 1502 1503 1504 1504 1507 1508 1512 1514 1512 1513 1516 1521 1523 1525 1527 1530 1534 1538 1541 1542 1543 1546 1549 1550 1551 1550 1551 1553 1555 1556 1556 1557 1558 1560 1562 1564 1565 1566 1567 1567 1568 1568 1568 1569 1570 1571 1572
1504 1501 1499 1500 1501 1502 1507 1511 1512 1514 1512 1515 1517 1519 1522 1525 1527 1531 1534 1537 1539 1541 1544 1550 1555 1554 1551 1549 1550 1551 1553 1554 1554 1555 1556 1557 1559 1560 1562 1563 1564 1565 1567 1568 1567 1568 1569 1570 1570
1502 1503 1501 1501 1501 1502 1504 1514 1512 1512 1513 1515 1519 1520 1522 1526 1530 1530 1533 1537 1538 1539 1544 1546 1551 1539 1541 1546 1548 1551 1551 1552 1552 1553 1555 1556 1557 1558 1559 1560 1561 1564 1564 1564 1564 1564 1565 1566 1567
1507 1509 1521 1500 1500 1502 1505 1521 1507 1509 1510 1514 1516 1519 1522 1523 1526 1530 1535 1538 1538 1538 1542 1541 1541 1538 1539 1543 1547 1548 1550 1551 1550 1552 1553 1555 1555 1556 1556 1558 1559 1560 1561 1561 1561 1561 1562 1562 1563
1520 1528 1522 1512 1498 1500 1504 1511 1503 1507 1510 1512 1514 1516 1519 1522 1525 1530 1533 1536 1536 1537 1538 1539 1538 1538 1537 1541 1541 1543 1547 1549 1549 1550 1552 1553 1553 1553 1554 1554 1555 1556 1556 1557 1556 1556 1557 1558 1559
1528 1528 1523 1522 1503 1499 1503 1505 1504 1506 1509 1511 1512 1515 1518 1520 1522 1527 1532 1533 1534 1535 1537 1539 1539 1537 1536 1536 1538 1540 1544 1546 1548 1548 1550 1552 1551 1552 1552 1552 1552 1553 1553 1552 1552 1552 1553 1553 1554
1517 1523 1526 1513 1501 1502 1505 1505 1504 1507 1510 1510 1510 1512 1514 1517 1522 1526 1529 1531 1532 1533 1535 1537 1539 1537 1537 1537 1537 1537 1539 1544 1547 1549 1549 1549 1550 1550 1550 1550 1550 1550 1549 1548 1548 1547 1547 1548 1549
1517 1522 1522 1510 1503 1501 1505 1508 1503 1504 1501 1499 1502 1508 1513 1516 1519 1522 1524 1531 1530 1533 1534 1537 1538 1538 1537 1538 1536 1537 1540 1544 1547 1548 1548 1549 1549 1549 1549 1548 1548 1547 1546 1545 1543 1542 1542 1543 1545
1514 1519 1514 1515 1509 1507 1509 1517 1511 1503 1502 1503 1506 1509 1512 1513 1515 1521 1523 1528 1529 1533 1535 1537 1539 1537 1537 1538 1538 1539 1541 1544 1546 1546 1547 1548 1548 1547 1546 1545 1545 1543 1541 1540 1538 1538 1539 1540 1541
1518 1505 1506 1510 1520 1535 1519 1550 1519 1509 1509 1501 1501 1504 1507 1510 1514 1518 1520 1524 1528 1531 1534 1538 1539 1538 1538 1538 1540 1542 1542 1544 1546 1547 1547 1547 1546 1544 1544 1542 1540 1538 1536 1535 1535 1535 1535 1536 1537
1511 1502 1508 1514 1527 1528 1532 1546 1525 1511 1508 1505 1502 1501 1504 1506 1510 1513 1519 1524 1527 1530 1533 1536 1537 1538 1539 1540 1541 1542 1544 1544 1545 1546 1545 1544 1543 1542 1541 1539 1537 1535 1534 1533 1532 1531 1531 1532 1533
1501 1508 1521 1531 1539 1556 1541 1543 1536 1523 1515 1508 1503 1502 1501 1502 1509 1513 1518 1523 1527 1527 1531 1535 1537 1537 1539 1541 1541 1542 1544 1544 1544 1544 1543 1542 1542 1540 1538 1535 1534 1532 1532 1531 1530 1529 1527 1528 1530
1506 1526 1561 1556 1567 1563 1539 1542 1530 1511 1507 1505 1502 1499 1501 1505 1507 1512 1516 1522 1523 1526 1530 1532 1534 1536 1538 1540 1542 1541 1542 1545 1545 1544 1542 1540 1540 1539 1537 1535 1533 1532 1531 1530 1529 1528 1526 1526 1528
1510 1520 1556 1561 1574 1559 1540 1540 1524 1505 1501 1499 1497 1500 1504 1504 1507 1511 1514 1517 1521 1524 1528 1530 1531 1534 1535 1538 1540 1541 1541 1542 1544 1543 1542 1540 1540 1538 1537 1535 1534 1532 1530 1529 1528 1527 1526 1526 1527
1513 1523 1521 1554 1562 1560 1551 1532 1511 1503 1501 1502 1502 1499 1499 1501 1504 1507 1512 1515 1520 1522 1526 1529 1530 1532 1534 1537 1535 1537 1541 1541 1543 1543 1543 1542 1541 1539 1537 1536 1534 1531 1531 1529 1527 1527 1528 1527 1527
1498 1507 1532 1544 1559 1558 1555 1545 1537 1509 1505 1509 1505 1506 1506 1505 1504 1508 1510 1514 1520 1525 1525 1528 1530 1532 1533 1535 1537 1537 1540 1542 1543 1544 1543 1543 1541 1540 1539 1536 1533 1531 1531 1529 1528 1528 1528 1528 1527
1508 1516 1530 1537 1549 1564 1566 1549 1510 1505 1507 1508 1505 1505 1505 1506 1506 1507 1511 1518 1523 1526 1525 1527 1529 1530 1531 1532 1535 1537 1540 1542 1544 1544 1544 1543 1542 1541 1540 1536 1535 1533 1532 1531 1530 1529 1529 1529 1527
1494 1505 1515 1541 1543 1557 1555 1540 1500 1501 1504 1507 1505 1505 1505 1505 1506 1506 1510 1514 1522 1527 1527 1527 1529 1530 1528 1529 1535 1538 1542 1544 1544 1544 1544 1544 1543 1543 1541 1538 1537 1536 1535 1534 1532 1531 1530 1531 1530
Wind_Speed
5 10 11 6 3 4 4 3 3 4 3 2 9 2 5 5 1 2 18 23 27 24 22 20 18 16 17 17 16 16 16 15 15 14 12 12 12 11 10 8 7 6 6 5 6 7 7 8 8
6 12 9 1 5 4 4 3 2 1 7 13 10 8 7 3 1 14 30 22 25 24 22 21 19 17 16 16 15 14 14 14 14 12 11 11 12 11 10 8 6 5 5 6 6 6 7 8 8
11 11 4 3 3 3 3 2 2 10 7 3 4 10 4 3 14 28 24 23 23 24 22 21 19 17 16 15 15 13 13 13 13 11 11 11 11 11 10 8 6 6 6 6 7 6 5 7 7
13 5 2 3 2 2 3 5 4 6 7 8 11 5 5 1 17 18 19 24 22 23 22 20 18 16 15 14 14 13 13 13 12 11 10 10 11 10 9 7 5 5 5 5 5 5 7 9 10
15 3 3 4 4 3 2 7 10 2 4 8 4 3 5 13 5 12 18 24 22 24 22 20 18 16 14 14 13 13 13 12 11 11 11 11 11 9 8 7 6 5 4 4 4 3 5 9 9
6 3 5 0 3 3 4 7 4 1 5 12 10 5 3 5 6 14 20 23 22 22 21 20 18 15 14 14 13 12 12 11 11 10 10 10 9 9 7 5 5 5 5 6 5 4 4 9 9
5 4 4 3 0 2 5 11 2 5 7 5 17 4 4 10 13 17 22 22 21 20 20 18 17 15 14 13 12 12 12 11 11 10 9 9 8 7 6 5 4 4 4 4 5 4 3 7 11
4 4 3 3 3 5 9 12 7 8 2 14 10 6 6 18 16 19 22 21 21 20 18 17 16 15 14 14 12 11 11 11 10 9 9 8 8 7 6 5 6 6 5 4 4 4 4 5 11
4 4 2 5 6 3 13 5 11 4 15 3 4 9 18 23 20 22 24 22 22 20 18 17 16 15 13 13 12 12 11 10 9 9 10 8 8 7 6 6 5 4 4 3 4 5 5 6 10
5 3 4 3 4 6 11 11 12 5 10 2 5 10 26 25 24 25 26 25 23 20 18 16 15 14 14 13 12 11 11 10 9 9 9 9 8 7 6 6 5 4 3 3 3 5 6 7 8
2 3 3 2 4 19 17 10 9 14 3 11 19 25 30 27 26 26 24 20 19 18 16 16 15 14 13 12 12 11 10 10 9 9 8 8 10 8 5 6 6 6 5 4 5 4 6 7 9
4 5 4 2 7 10 11 13 7 17 6 12 20 24 30 28 28 26 24 21 20 18 15 15 16 15 14 13 12 12 11 11 10 9 9 10 9 10 8 8 9 9 7 6 5 5 6 6 8
2 3 4 8 8 13 10 8 6 11 4 17 23 25 27 26 25 22 19 18 17 17 16 15 15 14 13 16 15 14 13 12 11 11 10 10 11 10 11 9 9 7 9 9 8 6 7 7 7
7 9 13 5 3 11 12 3 5 8 14 22 24 26 24 24 23 23 24 21 19 17 11 15 11 12 15 18 15 13 14 14 13 13 12 12 12 11 11 10 9 10 9 9 10 10 10 10 10
3 4 5 4 6 4 12 2 7 12 22 25 26 26 25 21 22 23 19 20 18 19 14 18 9 10 23 17 14 13 16 17 11 12 13 13 12 9 11 12 11 9 10 11 12 14 16 17 16
6 6 5 4 5 5 11 7 4 20 28 26 27 28 26 24 19 21 21 21 21 20 13 15 3 14 19 18 18 15 12 13 12 13 13 12 11 10 10 14 13 12 15 15 14 16 17 18 20
7 1 4 9 3 5 5 6 6 24 26 24 28 28 28 25 23 21 23 21 20 20 21 15 14 13 8 20 18 18 14 11 11 13 12 12 11 11 10 10 11 11 14 15 15 18 19 18 18
2 4 5 5 6 0 5 1 3 22 22 21 27 28 27 26 23 21 23 24 21 22 21 17 10 10 9 19 19 13 15 8 7 10 13 10 11 10 7 6 8 11 14 17 17 17 19 19 18
2 2 4 5 4 3 3 3 5 15 15 20 25 28 28 26 22 22 24 24 21 19 21 17 12 8 5 9 15 7 16 15 12 13 9 5 8 9 7 6 10 12 12 11 15 18 19 20 18
1 2 4 6 6 2 4 2 2 12 21 29 29 30 29 26 24 22 21 23 20 16 15 13 8 2 1 3 6 3 10 6 4 4 6 6 5 7 7 8 10 12 12 14 15 16 17 17 18
2 4 2 3 5 3 1 5 5 3 12 16 17 22 26 28 26 23 22 23 20 16 11 12 8 5 5 5 6 8 7 9 5 4 3 0 4 7 8 9 11 14 17 16 14 14 14 15 15
1 5 2 0 4 1 5 3 6 2 8 6 16 23 26 28 26 24 25 24 20 16 12 13 7 8 8 4 9 13 10 6 5 3 0 4 8 9 10 13 16 16 14 11 9 11 13 14 15
7 3 3 3 4 3 6 4 7 6 7 6 5 22 26 28 27 27 26 24 18 14 12 11 9 10 8 10 12 7 3 3 1 2 6 9 12 12 15 14 12 10 9 7 7 9 11 14 14
6 5 8 5 3 4 4 3 5 3 5 7 2 14 25 27 24 25 25 21 17 10 8 9 10 11 8 12 8 3 0 1 3 5 9 12 13 14 12 10 9 7 6 6 8 8 7 8 10
6 7 3 4 5 5 2 2 8 7 5 6 8 19 21 22 25 24 21 19 18 13 11 10 12 15 12 10 8 5 3 2 5 7 10 12 12 10 9 7 6 6 4 5 6 6 4 4 7
3 6 6 4 3 4 3 2 5 5 15 12 5 14 16 23 24 23 21 20 17 11 9 9 13 16 15 13 9 6 3 3 6 9 10 11 9 9 9 8 7 7 6 5 5 6 4 2 5
3 3 4 8 3 2 3 6 9 5 7 12 3 16 21 23 26 28 25 21 16 12 9 9 11 14 14 14 12 7 3 1 5 7 8 6 8 10 8 6 6 7 8 9 8 6 4 3 2
4 6 4 3 4 3 4 4 5 4 6 7 5 2 9 17 24 27 26 22 16 13 10 10 10 11 12 12 9 6 2 2 4 7 5 6 9 10 9 8 8 9 8 10 10 8 6 4 3
2 3 7 6 4 5 2 6 7 10 5 1 3 3 8 13 20 26 27 20 15 12 9 8 10 14 14 12 6 3 2 2 4 6 4 7 9 9 9 11 10 10 10 11 11 10 9 7 5
2 5 6 5 4 1 3 5 1 3 4 4 4 3 5 9 18 24 24 19 15 12 9 13 11 12 13 13 5 3 3 3 6 5 5 7 8 9 11 11 10 10 11 11 12 13 13 9 8
Wind_Direction
131 139 146 133 54 62 359 12 338 28 41 46 136 141 128 61 87 184 147 157 166 158 158 158 159 152 146 149 150 148 150 150 150 148 149 152 155 156 157 152 157 153 146 136 138 144 140 140 141
130 142 139 47 73 68 299 320 134 358 112 91 77 87 55 58 94 137 148 152 165 162 162 160 161 154 150 151 151 151 153 153 153 153 155 157 158 160 159 152 156 149 151 140 141 153 146 144 145
139 140 124 115 99 150 172 248 157 133 96 51 76 52 50 49 123 139 154 155 159 163 164 161 162 160 157 157 156 153 156 154 157 158 161 161 161 162 159 158 160 152 148 151 152 147 145 150 150
150 187 249 70 36 290 197 162 141 136 96 77 105 62 71 101 131 148 158 161 165 167 163 163 164 167 163 160 161 159 159 161 161 160 160 163 164 166 165 169 162 158 156 155 145 163 165 172 165
169 182 59 63 323 306 94 168 156 137 86 100 80 89 75 132 134 162 163 162 170 168 166 165 168 171 170 169 168 166 163 166 165 161 161 164 168 171 172 172 162 168 166 144 135 168 187 179 175
162 210 56 64 313 47 52 176 160 112 103 117 98 85 125 185 187 169 167 167 171 168 168 171 172 177 177 176 174 172 170 171 170 166 164 167 167 169 167 167 164 169 163 168 153 172 211 178 183
156 77 165 161 203 112 172 192 208 154 131 127 133 92 142 164 175 169 166 169 172 172 171 175 177 181 183 180 179 178 178 177 174 171 169 169 167 173 164 160 159 157 167 163 157 168 203 195 183
89 88 128 199 198 203 170 166 195 140 79 143 127 153 183 168 171 169 168 172 176 177 178 182 183 187 187 182 182 185 183 180 178 175 175 174 176 177 170 166 163 164 168 163 163 177 192 203 196
70 64 187 196 167 167 152 124 161 183 143 122 195 176 165 162 165 167 171 178 183 184 187 190 191 191 191 190 186 185 186 183 185 183 182 187 185 183 176 175 169 167 168 176 164 173 196 200 206
76 100 232 190 192 148 168 145 165 145 152 69 134 162 164 166 163 169 177 184 188 190 193 199 200 198 196 197 195 191 188 188 191 195 194 191 192 187 182 184 186 186 194 203 208 184 187 206 213
151 165 188 288 214 161 157 142 177 139 229 204 172 164 171 171 172 178 182 186 190 193 202 205 205 206 207 209 205 203 200 199 200 204 206 204 205 202 216 219 235 242 250 248 224 230 206 199 213
357 239 237 335 212 167 162 156 144 172 246 192 181 170 173 179 181 186 191 193 197 198 206 209 209 210 210 214 217 219 213 212 213 212 218 225 217 218 235 263 263 252 269 268 246 246 223 221 216
133 306 222 326 249 191 182 159 168 209 225 171 169 174 182 187 189 194 198 201 201 205 207 207 211 215 222 224 214 223 223 222 219 221 219 219 225 240 245 259 260 243 249 261 253 259 252 244 245
315 295 292 343 204 176 169 144 152 219 176 171 175 179 186 194 195 198 204 206 211 214 212 204 219 240 244 240 224 226 227 225 222 225 222 231 234 241 251 260 264 256 258 259 266 265 270 259 248
294 5 332 208 181 169 136 44 227 196 180 174 185 187 190 197 207 209 202 207 212 216 215 197 147 143 234 243 246 244 241 239 248 243 235 231 234 237 250 249 262 269 265 267 257 257 259 260 261
35 50 13 303 134 169 156 246 222 181 174 178 189 196 199 200 209 219 219 218 219 222 227 221 233 357 236 231 237 246 251 242 250 253 249 242 228 234 252 257 260 267 264 263 260 257 259 264 262
7 316 323 318 174 144 175 238 208 183 180 182 193 201 206 210 214 221 229 230 233 235 222 239 275 302 270 230 247 235 246 235 256 265 249 243 241 247 256 273 259 269 271 273 272 267 257 262 266
305 334 311 245 299 228 171 181 144 185 186 193 198 204 212 217 219 221 228 236 245 247 243 249 289 309 298 227 259 268 224 221 271 284 243 252 240 255 252 270 268 272 274 275 270 266 259 264 263
150 228 264 266 280 231 203 83 227 177 192 206 211 211 212 222 226 225 229 236 246 249 245 250 266 326 285 267 290 278 214 219 257 292 224 231 242 243 265 276 274 278 285 286 276 269 262 255 255
250 259 270 289 333 122 9 57 294 173 214 209 206 212 215 222 228 229 229 233 241 240 252 233 237 295 167 338 2 164 174 196 243 249 208 221 257 273 285 285 283 290 289 288 283 270 263 258 249
223 207 224 221 345 39 59 353 356 274 268 258 228 220 222 226 227 223 225 227 231 238 244 232 248 195 159 101 75 119 132 149 181 233 215 185 318 312 299 294 300 299 295 290 277 262 256 258 249
252 212 160 30 59 266 26 275 303 244 276 292 192 208 222 227 229 223 220 220 234 235 225 212 229 201 177 157 133 126 143 164 191 199 49 358 337 326 312 310 308 305 299 293 277 260 254 256 250
215 112 61 67 83 67 3 82 266 343 347 343 214 203 218 228 224 219 215 220 225 235 220 214 205 194 171 152 154 138 150 179 181 53 8 345 332 324 317 316 315 314 307 298 294 278 261 256 252
136 75 49 53 72 32 291 126 296 314 275 310 210 209 212 217 213 214 213 218 218 215 191 193 195 189 180 160 158 155 303 76 29 357 343 334 329 326 328 333 334 330 314 311 316 302 271 246 242
77 61 6 5 14 205 313 34 240 274 251 249 234 208 204 206 204 207 213 206 202 199 184 186 194 190 197 185 200 211 231 322 339 343 340 336 332 331 339 356 357 346 318 330 340 342 334 247 234
98 142 147 179 188 259 310 284 270 261 315 304 231 204 197 204 207 203 206 211 200 181 186 199 194 200 203 202 210 237 254 311 333 340 342 341 331 351 358 11 17 22 11 345 346 353 355 283 257
181 118 164 104 10 39 283 288 314 329 342 13 96 176 198 202 206 208 209 211 204 179 191 207 203 200 205 205 201 207 202 335 335 343 345 342 358 4 4 22 38 39 30 39 33 12 355 357 286
160 150 82 16 134 219 293 279 237 278 280 25 20 32 214 215 212 209 209 207 201 184 181 202 204 209 207 202 192 158 149 2 352 347 1 21 23 23 25 37 44 42 38 42 42 43 36 21 26
139 118 56 110 111 156 189 268 215 207 141 101 310 238 228 218 219 211 209 205 197 190 194 206 208 208 210 192 171 135 123 32 10 8 38 42 33 33 36 49 48 52 49 47 45 44 40 35 43
197 139 128 120 221 115 150 268 263 241 191 145 233 207 187 230 225 216 206 204 194 198 208 222 221 224 208 164 163 132 109 38 18 39 56 50 38 38 44 56 59 61 59 59 57 54 52 49 54